Location: Dvur Kralove nad Labem
(50.4330°N, 15.8170°E)
Time: 15:04:15
(UTC+02:00)

ISS - Pass Details

Date: 19 May 2018
Orbit: 402 x 407 km, 51.6° (Epoch: 24 May)

Event Time Altitude Azimuth Distance (km) Brightness Sun altitude
Exits shadow 00:57:37 68° 76° (ENE) 436 -3.7 -19.9°
Drops below altitude 10° 01:00:31 10° 76° (ENE) 1,458 -0.8 -19.8°
Sets 01:02:36 0° 77° (ENE) 2,319 0.2 -19.8°
